• In Portugal
  • List of Countries
  • For 7 days
  • Water Temperature
  • Satellite Maps
  • Weather Map
  • Weather Widgets
  • user-avatar
    Login

    Hourly Weather Sherpur

    Today, 20 July, Friday

    Time Temperature Precipitation Wind Pressure Humidity
    00:00 +26°C° 0 mm 1 mps 607 mmHg 32%
    01:00 +25°C° 0 mm 1 mps 607 mmHg 34%
    02:00 +25°C° 0 mm 1 mps 607 mmHg 37%
    03:00 +24°C° 0 mm 1 mps 607 mmHg 39%
    04:00 +24°C° 0 mm 1 mps 606 mmHg 41%
    05:00 +23°C° 0 mm 1 mps 606 mmHg 43%
    06:00 +24°C° 0 mm 1 mps 607 mmHg 40%
    07:00 +26°C° 0 mm 1 mps 607 mmHg 36%
    08:00 +27°C° 0 mm 1 mps 608 mmHg 32%
    09:00 +28°C° 0 mm 1 mps 608 mmHg 28%
    10:00 +30°C° 0 mm 1 mps 609 mmHg 24%
    11:00 +31°C° 0 mm 2 mps 609 mmHg 22%
    12:00 +32°C° 0 mm 2 mps 609 mmHg 21%
    13:00 +34°C° 0 mm 2 mps 609 mmHg 19%
    14:00 +35°C° 0 mm 2 mps 609 mmHg 18%
    15:00 +35°C° 0 mm 3 mps 609 mmHg 18%
    16:00 +35°C° 0 mm 3 mps 609 mmHg 18%
    17:00 +35°C° 0 mm 3 mps 609 mmHg 17%
    18:00 +34°C° 0 mm 3 mps 608 mmHg 19%
    19:00 +31°C° 0 mm 3 mps 608 mmHg 21%
    20:00 +30°C° 0 mm 2 mps 608 mmHg 24%
    21:00 +29°C° 0 mm 2 mps 608 mmHg 26%
    22:00 +28°C° 0 mm 2 mps 608 mmHg 29%
    23:00 +27°C° 0 mm 2 mps 608 mmHg 31%

    Tomorrow, 21 July, Saturday

    Time Temperature Precipitation Wind Pressure Humidity
    00:00 +26°C° 0 mm 1 mps 608 mmHg 34%
    01:00 +26°C° 0 mm 1 mps 607 mmHg 36%
    02:00 +25°C° 0 mm 1 mps 607 mmHg 38%
    03:00 +25°C° 0 mm 1 mps 607 mmHg 39%
    04:00 +24°C° 0 mm 1 mps 607 mmHg 40%
    05:00 +24°C° 0 mm 1 mps 607 mmHg 40%
    06:00 +25°C° 0 mm 1 mps 607 mmHg 36%
    07:00 +26°C° 0 mm 1 mps 608 mmHg 32%
    08:00 +28°C° 0 mm 1 mps 608 mmHg 28%
    09:00 +29°C° 0 mm 1 mps 609 mmHg 25%
    10:00 +30°C° 0 mm 1 mps 609 mmHg 22%
    11:00 +32°C° 0 mm 2 mps 609 mmHg 18%
    12:00 +34°C° 0 mm 2 mps 609 mmHg 17%
    13:00 +35°C° 0 mm 2 mps 609 mmHg 15%
    14:00 +36°C° 0 mm 2 mps 609 mmHg 14%
    15:00 +36°C° 0 mm 3 mps 609 mmHg 13%
    16:00 +36°C° 0 mm 3 mps 609 mmHg 13%
    17:00 +36°C° 0 mm 3 mps 609 mmHg 12%
    18:00 +35°C° 0 mm 3 mps 608 mmHg 13%
    19:00 +33°C° 0 mm 3 mps 608 mmHg 15%
    20:00 +31°C° 0 mm 2 mps 608 mmHg 16%
    21:00 +30°C° 0 mm 2 mps 608 mmHg 18%
    22:00 +29°C° 0 mm 2 mps 608 mmHg 20%
    23:00 +28°C° 0 mm 2 mps 608 mmHg 22%

    Day after tomorrow, 22 July, Sunday

    Time Temperature Precipitation Wind Pressure Humidity
    00:00 +27°C° 0 mm 2 mps 607 mmHg 24%
    01:00 +26°C° 0 mm 1 mps 607 mmHg 26%
    02:00 +25°C° 0 mm 1 mps 606 mmHg 28%
    03:00 +25°C° 0 mm 1 mps 606 mmHg 28%
    04:00 +24°C° 0 mm 1 mps 606 mmHg 29%
    05:00 +23°C° 0 mm 1 mps 606 mmHg 30%
    06:00 +25°C° 0 mm 1 mps 606 mmHg 26%
    07:00 +27°C° 0 mm 1 mps 607 mmHg 22%
    08:00 +28°C° 0 mm 1 mps 608 mmHg 18%
    09:00 +30°C° 0 mm 1 mps 608 mmHg 15%
    10:00 +31°C° 0 mm 1 mps 608 mmHg 13%
    11:00 +32°C° 0 mm 2 mps 609 mmHg 11%
    12:00 +34°C° 0 mm 2 mps 609 mmHg 10%
    13:00 +35°C° 0 mm 2 mps 609 mmHg 9%
    14:00 +36°C° 0 mm 2 mps 609 mmHg 9%
    15:00 +36°C° 0 mm 2 mps 609 mmHg 9%
    16:00 +36°C° 0 mm 3 mps 608 mmHg 9%
    17:00 +37°C° 0 mm 3 mps 608 mmHg 9%
    18:00 +35°C° 0 mm 3 mps 608 mmHg 12%
    19:00 +34°C° 0 mm 3 mps 608 mmHg 14%
    20:00 +31°C° 0 mm 3 mps 608 mmHg 17%
    21:00 +30°C° 0 mm 2 mps 608 mmHg 20%
    22:00 +29°C° 0 mm 2 mps 608 mmHg 24%
    23:00 +28°C° 0 mm 2 mps 608 mmHg 27%

    23 July, Monday

    Time Temperature Precipitation Wind Pressure Humidity
    00:00 +27°C° 0 mm 1 mps 607 mmHg 29%
    01:00 +26°C° 0 mm 1 mps 607 mmHg 32%
    02:00 +25°C° 0 mm 1 mps 606 mmHg 35%
    03:00 +25°C° 0 mm 1 mps 606 mmHg 36%
    04:00 +24°C° 0 mm 1 mps 606 mmHg 37%
    05:00 +24°C° 0 mm 1 mps 606 mmHg 38%
    06:00 +25°C° 0 mm 1 mps 606 mmHg 33%
    07:00 +27°C° 0 mm 1 mps 607 mmHg 28%
    08:00 +28°C° 0 mm 1 mps 608 mmHg 23%
    09:00 +30°C° 0 mm 1 mps 608 mmHg 21%
    10:00 +31°C° 0 mm 2 mps 608 mmHg 18%
    11:00 +34°C° 0 mm 2 mps 609 mmHg 15%
    12:00 +34°C° 0 mm 2 mps 609 mmHg 14%
    13:00 +35°C° 0 mm 2 mps 608 mmHg 14%
    14:00 +36°C° 0 mm 2 mps 608 mmHg 13%
    15:00 +36°C° 0 mm 3 mps 608 mmHg 13%
    16:00 +36°C° 0 mm 3 mps 608 mmHg 13%
    17:00 +36°C° 0 mm 4 mps 608 mmHg 14%
    18:00 +35°C° 0 mm 3 mps 608 mmHg 17%
    19:00 +33°C° 0 mm 3 mps 608 mmHg 21%
    20:00 +30°C° 0 mm 3 mps 608 mmHg 24%
    21:00 +29°C° 0 mm 3 mps 607 mmHg 28%
    22:00 +28°C° 0 mm 2 mps 607 mmHg 33%
    23:00 +27°C° 0 mm 2 mps 607 mmHg 37%

    24 July, Tuesday

    Time Temperature Precipitation Wind Pressure Humidity
    00:00 +26°C° 0 mm 1 mps 607 mmHg 40%
    01:00 +26°C° 0 mm 1 mps 607 mmHg 43%
    02:00 +25°C° 0 mm 1 mps 606 mmHg 45%
    03:00 +25°C° 0 mm 1 mps 606 mmHg 45%
    04:00 +24°C° 0 mm 1 mps 606 mmHg 44%
    05:00 +24°C° 0 mm 2 mps 606 mmHg 44%
    06:00 +25°C° 0 mm 1 mps 606 mmHg 38%
    07:00 +27°C° 0 mm 1 mps 607 mmHg 32%
    08:00 +28°C° 0 mm 1 mps 608 mmHg 26%
    09:00 +30°C° 0 mm 2 mps 608 mmHg 22%
    10:00 +31°C° 0 mm 2 mps 609 mmHg 18%
    11:00 +34°C° 0 mm 2 mps 609 mmHg 14%
    12:00 +35°C° 0 mm 2 mps 609 mmHg 14%
    13:00 +36°C° 0 mm 3 mps 609 mmHg 13%
    14:00 +36°C° 0 mm 3 mps 609 mmHg 13%
    15:00 +36°C° 0 mm 4 mps 609 mmHg 13%
    16:00 +36°C° 0 mm 4 mps 609 mmHg 13%
    17:00 +36°C° 0 mm 5 mps 609 mmHg 14%
    18:00 +35°C° 0 mm 4 mps 609 mmHg 16%
    19:00 +33°C° 0 mm 4 mps 609 mmHg 19%
    20:00 +30°C° 0 mm 4 mps 609 mmHg 21%
    21:00 +29°C° 0 mm 3 mps 609 mmHg 25%
    22:00 +28°C° 0 mm 2 mps 609 mmHg 29%
    23:00 +27°C° 0 mm 2 mps 609 mmHg 32%

    25 July, Wednesday

    Time Temperature Precipitation Wind Pressure Humidity
    00:00 +27°C° 0 mm 2 mps 608 mmHg 34%
    01:00 +26°C° 0 mm 2 mps 608 mmHg 36%
    02:00 +25°C° 0 mm 1 mps 607 mmHg 38%
    03:00 +25°C° 0 mm 2 mps 607 mmHg 36%
    04:00 +24°C° 0 mm 2 mps 607 mmHg 35%
    05:00 +24°C° 0 mm 2 mps 607 mmHg 33%
    06:00 +25°C° 0 mm 2 mps 607 mmHg 30%
    07:00 +27°C° 0 mm 2 mps 608 mmHg 26%
    08:00 +28°C° 0 mm 2 mps 609 mmHg 22%
    09:00 +29°C° 0 mm 2 mps 609 mmHg 19%
    10:00 +31°C° 0 mm 2 mps 609 mmHg 15%
    11:00 +33°C° 0 mm 3 mps 610 mmHg 12%
    12:00 +34°C° 0 mm 3 mps 609 mmHg 11%
    13:00 +35°C° 0 mm 4 mps 609 mmHg 10%
    14:00 +36°C° 0 mm 4 mps 609 mmHg 9%
    15:00 +36°C° 0 mm 5 mps 609 mmHg 9%
    16:00 +36°C° 0 mm 6 mps 609 mmHg 10%
    17:00 +36°C° 0 mm 6 mps 609 mmHg 10%
    18:00 +34°C° 0 mm 6 mps 608 mmHg 12%
    19:00 +33°C° 0 mm 5 mps 608 mmHg 14%
    20:00 +30°C° 0 mm 4 mps 608 mmHg 16%
    21:00 +29°C° 0 mm 4 mps 608 mmHg 18%
    22:00 +28°C° 0 mm 3 mps 608 mmHg 20%
    23:00 +27°C° 0 mm 2 mps 608 mmHg 22%
    Show more